Regional Weather Roundup
Issued by NWS State College, PA

Home | Current Version | Previous Version | Graphics & Text | Print | Product List | Glossary On
Versions: 1 2 3 4 5 6 7 8 9 10 11 12 13 14 15 16 17 18 19 20 21 22 23 24 25 26 27 28 29 30 31 32 33 34 35 36 37 38 39 40 41 42 43 44 45 46 47 48 49 50
000
ASUS41 KCTP 010510
RWRCTP

REGIONAL WEATHER ROUNDUP
NATIONAL WEATHER SERVICE STATE COLLEGE PA
100 AM EDT WED JUL 01 2015

Note: "fair" indicates few or no clouds below 12,000 feet with no
significant weather and/or obstructions to visibility.

* = STATION THAT DOES NOT REPORT PRECIPITATION /E.G. RAIN...SNOW...ETC/
    THUNDER OR FOG.

PAZ002>004-007>009-013>016-020>023-029>032-010600-
WESTERN PENNSYLVANIA

CITY           SKY/WX    TMP DP  RH WIND       PRES   REMARKS
ERIE           NOT AVBL
MEADVILLE      NOT AVBL
FRANKLIN*      NOT AVBL
NEW CASTLE     CLOUDY    64  64 100 CALM      29.83F
BEAVER COUNTY  NOT AVBL
BUTLER*        NOT AVBL
PITTSBURGH INT NOT AVBL
PITTSBURGH     NOT AVBL
INDIANA*       CLOUDY    61  61 100 SW7       29.89F
LATROBE        NOT AVBL
WASHINGTON CO* NOT AVBL
$$

PAZ004>006-010>012-017>019-024>028-033>037-041-042-045-046-049>053-010600-
CENTRAL PENNSYLVANIA

CITY           SKY/WX    TMP DP  RH WIND       PRES   REMARKS
BRADFORD       NOT AVBL
DUBOIS         NOT AVBL
CLEARFIELD     NOT AVBL
JOHNSTOWN      NOT AVBL
ALTOONA        NOT AVBL
STATE COLLEGE  CLOUDY    63  61  93 CALM      29.84S
WILLIAMSPORT   NOT AVBL
SELINSGROVE    NOT AVBL
FT INDIANTOWN  CLOUDY    69  69  98 CALM      29.80F
CAPITAL CITY   CLOUDY    71  66  84 NW7       29.80R
HARRISBURG     CLOUDY    71  66  84 VRB3      29.78F
YORK           NOT AVBL
$$

PAZ038>040-043-044-047-048-054-055-060>062-067>071-010600-
EASTERN PENNSYLVANIA

CITY           SKY/WX    TMP DP  RH WIND       PRES   REMARKS
SCRANTON       NOT AVBL
MOUNT POCONO   NOT AVBL
ALLENTOWN      NOT AVBL
QUAKERTOWN*    MOCLDY    68  68 100 CALM      29.82F
READING        NOT AVBL
LANCASTER      CLOUDY    68  63  84 SW9       29.82S
COATESVILLE    MOCLDY    70  70 100 CALM      29.82F
POTTSTOWN      NOT AVBL
BLUE BELL      MOCLDY    72  72 100 CALM      29.80F
DOYLESTOWN     NOT AVBL
WILLOW GROVE   NOT AVBL
NORTH PHILA    NOT AVBL
PHILADELPHIA   MOCLDY    74  71  91 S5        29.80F
$$


USA.gov is the U.S. government's official web portal to all federal, state and local government web resources and services.